Home > Weather > Khanty-Mansiysk > Past weeks

Flag for Russia Past Weather in Khanty-Mansiysk, Russia — Yesterday and Last 2 Weeks

Now
61 °F

Sprinkles. Partly sunny.


Feels Like: 61 °F
Forecast: 58 / 70 °F
Wind: 3 mph from Northeast

Location: Hanty-Mansijsk

Current Time: Jun 27, 2016 at 6:06:23 PM

Latest Report: Jun 27, 2016 at 5:30 PM


Visibility: 6 mi

Pressure: 29.36 "Hg

Humidity: 94%

Dew Point: 59 °F

Location of Khanty-MansiyskLocation

Past Weather in Khanty-Mansiysk — Graph

°F

Khanty-Mansiysk Temperature Yesterday

Maximum temperature yesterday: 64 °F (at 10:30 AM)
Minimum temperature yesterday: 50 °F (at 2:30 AM)
Average temperature yesterday: 60 °F

High & Low Weather Summary for the Past Weeks

 TemperatureHumidityPressure
High86 °F (Jun 21, 3:00 PM)94% (Jun 21, 11:00 PM)30.21 "Hg (Jun 21, 11:00 PM)
Low50 °F (Jun 26, 2:30 AM)20% (Jun 19, 3:30 PM)29.36 "Hg (Jun 27, 4:30 PM)
Average68 °F59%29.83 "Hg
* Reported Jun 12 5:00 PM — Jun 27 5:00 PM, Khanty-Mansiysk, Weather by CustomWeather, © 2016

Note: Actual official high and low records may vary slightly from our data, if they occured in-between our weather recording intervals... More about our weather records

Advertising

Khanty-Mansiysk Weather History for the Previous 24 Hours

Scroll right to see more
 ConditionsComfort  
Time TempWeatherWind HumidityBarometerVisibility
5:00 PM
Mon, Jun 27
61 °FSprinkles. Partly sunny.3 mph94%29.36 "HgN/A
4:30 PM61 °FPartly sunny.6 mph94%29.36 "HgN/A
4:00 PM61 °FSprinkles. Partly sunny.6 mph94%29.39 "HgN/A
3:30 PM61 °FSprinkles. Partly sunny.6 mph94%29.39 "HgN/A
3:00 PM61 °FSprinkles. Partly sunny.6 mph88%29.39 "HgN/A
2:30 PM61 °FSprinkles. Partly sunny.6 mph88%29.42 "HgN/A
2:00 PM61 °FSprinkles. Partly sunny.6 mph88%29.42 "Hg6 mi
1:30 PM59 °FSprinkles. Partly sunny.6 mph94%29.45 "Hg4 mi
1:00 PM59 °FSprinkles. Partly sunny.6 mph94%29.45 "Hg4 mi
12:30 PM59 °FSprinkles. Partly sunny.6 mph94%29.45 "Hg6 mi
12:00 PM59 °FSprinkles. Partly sunny.6 mph94%29.45 "Hg5 mi
11:30 AM59 °FSprinkles. Partly sunny.6 mph88%29.47 "Hg4 mi
11:00 AM57 °FSprinkles. Partly sunny.3 mph94%29.47 "Hg3 mi
10:30 AM57 °FSprinkles. Partly sunny.6 mph94%29.50 "Hg3 mi
10:00 AM57 °FSprinkles. Fog.6 mph88%29.50 "Hg2 mi
9:30 AM55 °FSprinkles. Partly sunny.6 mph94%29.50 "Hg3 mi
9:00 AM57 °FSprinkles. Partly sunny.8 mph88%29.53 "Hg4 mi
8:30 AM55 °FSprinkles. Partly sunny.6 mph94%29.53 "Hg5 mi
8:00 AM55 °FSprinkles. Partly sunny.6 mph94%29.53 "Hg6 mi
7:30 AM55 °FSprinkles. Fog.6 mph94%29.56 "Hg2 mi
7:00 AM55 °FSprinkles. Fog.6 mph94%29.56 "Hg2 mi
6:30 AM55 °FSprinkles. Scattered clouds.6 mph94%29.59 "Hg4 mi
6:00 AM57 °FSprinkles. Scattered clouds.6 mph82%29.59 "Hg4 mi
5:30 AM57 °FSprinkles. Scattered clouds.8 mph82%29.59 "Hg5 mi
5:00 AM57 °FSprinkles. Scattered clouds.8 mph82%29.59 "Hg6 mi
4:30 AM57 °FSprinkles. Scattered clouds.6 mph82%29.62 "HgN/A
4:00 AM57 °FSprinkles. Scattered clouds.6 mph82%29.62 "HgN/A
3:30 AM57 °FSprinkles. Scattered clouds.3 mph82%29.62 "Hg6 mi
3:00 AM57 °FSprinkles. Scattered clouds.3 mph82%29.65 "Hg6 mi
2:30 AM59 °FPassing clouds.3 mph72%29.65 "HgN/A
2:00 AM59 °FPassing clouds.6 mph72%29.68 "HgN/A
1:30 AM61 °FPassing clouds.6 mph63%29.68 "HgN/A
1:00 AM61 °FSprinkles. Passing clouds.6 mph63%29.68 "HgN/A
12:30 AM59 °FSprinkles. Passing clouds.3 mph68%29.71 "HgN/A
12:00 AM59 °FSprinkles. Passing clouds.6 mph68%29.71 "HgN/A
11:30 PM
Sun, Jun 26
61 °FSprinkles. Passing clouds.6 mph59%29.71 "HgN/A
11:00 PM61 °FPassing clouds.6 mph52%29.71 "HgN/A
10:30 PM61 °FPassing clouds.6 mph55%29.74 "HgN/A
10:00 PM61 °FScattered clouds.6 mph48%29.74 "HgN/A
9:30 PM61 °FSprinkles. Scattered clouds.3 mph52%29.74 "HgN/A
9:00 PM61 °FSprinkles. Scattered clouds.3 mph48%29.74 "HgN/A
8:30 PM63 °FSprinkles. Scattered clouds.6 mph49%29.77 "HgN/A
8:00 PM63 °FSprinkles. Scattered clouds.3 mph56%29.77 "HgN/A
7:30 PM63 °FSprinkles. Scattered clouds.3 mph56%29.74 "HgN/A
7:00 PM64 °FScattered clouds.3 mph46%29.77 "HgN/A
6:30 PM64 °FScattered clouds.3 mph46%29.77 "HgN/A
6:00 PM63 °FScattered clouds.1 mph52%29.77 "HgN/A
Weather by CustomWeather, © 2016

See weather overviewHow to use our weather pages